Powrót do katalogu

GXIBA-1

AktywnyNaukaVLEO
NORAD 67685·PAYLOAD·🇲🇽 Mexico

Wystrzelony Nov 20, 1998 z Baikonur Cosmodrome

Loading…

Następne Przeloty (najbliższe 24 godziny)

TLE

ŚwieżeSource: Space-Track

Epoka: Sep 13, 2026, 21:21 UTC

1 67685U 98067YB  26256.88961024  .00087195  00000-0  63503-3 0  9991
2 67685  51.6218 203.0684 0008660 155.4995 204.6416 15.72523767 34193

Śledź GXIBA-1 w czasie rzeczywistym z AllMySat

Download on the App Store